When you browse on this site, cookies collect data to enhance your experience and personalize the content and advertising you see.
Visit our Privacy Policy to learn more. By continuing to use the site, you agree to this use of cookies and data.
  • In France
  • List of Countries
  • For 7 days
  • Water Temperature
  • Satellite Maps
  • Weather Map
  • Weather Widgets
  • user-avatar
    Login

    Hourly Weather Vratsa

    Today, 22 March, Friday

    Time Temperature Precipitation Wind Pressure Humidity
    00:00 +5°C° 0 mm 0 mps 718 mmHg 86%
    01:00 +4°C° 0 mm 0 mps 718 mmHg 86%
    02:00 +4°C° 0 mm 0 mps 718 mmHg 83%
    03:00 +4°C° 0 mm 0 mps 718 mmHg 84%
    04:00 +4°C° 0 mm 0 mps 718 mmHg 84%
    05:00 +3°C° 0 mm 0 mps 717 mmHg 85%
    06:00 +4°C° 0 mm 0 mps 718 mmHg 81%
    07:00 +5°C° 0 mm 0 mps 718 mmHg 78%
    08:00 +6°C° 0 mm 0 mps 718 mmHg 74%
    09:00 +8°C° 0 mm 1 mps 718 mmHg 67%
    10:00 +9°C° 0 mm 1 mps 718 mmHg 61%
    11:00 +11°C° 0 mm 1 mps 718 mmHg 54%
    12:00 +12°C° 0 mm 2 mps 717 mmHg 51%
    13:00 +12°C° 0 mm 2 mps 717 mmHg 48%
    14:00 +13°C° 0 mm 2 mps 717 mmHg 45%
    15:00 +13°C° 0 mm 2 mps 716 mmHg 46%
    16:00 +13°C° 0 mm 2 mps 716 mmHg 46%
    17:00 +13°C° 0 mm 2 mps 715 mmHg 47%
    18:00 +12°C° 0 mm 1 mps 715 mmHg 52%
    19:00 +10°C° 0 mm 1 mps 715 mmHg 57%
    20:00 +8°C° 0 mm 0 mps 715 mmHg 63%
    21:00 +7°C° 0 mm 0 mps 715 mmHg 64%
    22:00 +7°C° 0 mm 0 mps 715 mmHg 65%
    23:00 +8°C° 0 mm 1 mps 715 mmHg 66%

    Tomorrow, 23 March, Saturday

    Time Temperature Precipitation Wind Pressure Humidity
    00:00 +7°C° 0 mm 1 mps 715 mmHg 65%
    01:00 +7°C° 0 mm 1 mps 715 mmHg 64%
    02:00 +7°C° 0 mm 1 mps 715 mmHg 64%
    03:00 +7°C° 0 mm 1 mps 715 mmHg 63%
    04:00 +6°C° 0 mm 1 mps 715 mmHg 62%
    05:00 +6°C° 0 mm 1 mps 714 mmHg 61%
    06:00 +7°C° 0 mm 1 mps 714 mmHg 59%
    07:00 +8°C° 0 mm 1 mps 715 mmHg 58%
    08:00 +7°C° 0 mm 0 mps 715 mmHg 56%
    09:00 +10°C° 0 mm 1 mps 715 mmHg 51%
    10:00 +12°C° 0 mm 1 mps 715 mmHg 47%
    11:00 +14°C° 0 mm 1 mps 714 mmHg 43%
    12:00 +14°C° 0 mm 1 mps 714 mmHg 42%
    13:00 +15°C° 0 mm 2 mps 714 mmHg 41%
    14:00 +15°C° 0 mm 2 mps 714 mmHg 40%
    15:00 +15°C° 0 mm 2 mps 713 mmHg 42%
    16:00 +15°C° 0 mm 2 mps 713 mmHg 43%
    17:00 +15°C° 0 mm 2 mps 712 mmHg 44%
    18:00 +13°C° 0 mm 1 mps 712 mmHg 49%
    19:00 +12°C° 0 mm 1 mps 713 mmHg 54%
    20:00 +11°C° 0 mm 1 mps 713 mmHg 59%
    21:00 +10°C° 0 mm 1 mps 713 mmHg 60%
    22:00 +10°C° 0 mm 1 mps 713 mmHg 60%
    23:00 +9°C° 0 mm 1 mps 714 mmHg 61%

    Day after tomorrow, 24 March, Sunday

    Time Temperature Precipitation Wind Pressure Humidity
    00:00 +9°C° 0 mm 1 mps 714 mmHg 64%
    01:00 +8°C° 0 mm 1 mps 714 mmHg 66%
    02:00 +7°C° 0 mm 0 mps 714 mmHg 69%
    03:00 +7°C° 0 mm 1 mps 713 mmHg 71%
    04:00 +7°C° 0 mm 1 mps 713 mmHg 74%
    05:00 +6°C° 0 mm 1 mps 713 mmHg 76%
    06:00 +7°C° 0 mm 1 mps 713 mmHg 75%
    07:00 +7°C° 0 mm 1 mps 713 mmHg 74%
    08:00 +8°C° 0 mm 1 mps 714 mmHg 72%
    09:00 +9°C° 0 mm 1 mps 714 mmHg 66%
    10:00 +9°C° 0 mm 2 mps 714 mmHg 59%
    11:00 +12°C° 0 mm 2 mps 714 mmHg 52%
    12:00 +13°C° 0 mm 2 mps 713 mmHg 49%
    13:00 +13°C° 0 mm 2 mps 713 mmHg 45%
    14:00 +14°C° 0 mm 2 mps 712 mmHg 41%
    15:00 +14°C° 0 mm 2 mps 712 mmHg 41%
    16:00 +14°C° 0 mm 1 mps 712 mmHg 41%
    17:00 +14°C° 0 mm 1 mps 711 mmHg 41%
    18:00 +13°C° 0 mm 1 mps 711 mmHg 45%
    19:00 +11°C° 0 mm 1 mps 711 mmHg 50%
    20:00 +9°C° 0 mm 0 mps 711 mmHg 55%
    21:00 +9°C° 0 mm 1 mps 711 mmHg 56%
    22:00 +9°C° 0 mm 1 mps 711 mmHg 57%
    23:00 +9°C° 0 mm 1 mps 711 mmHg 57%

    25 March, Monday

    Time Temperature Precipitation Wind Pressure Humidity
    00:00 +8°C° 0 mm 1 mps 711 mmHg 58%
    01:00 +7°C° 0 mm 2 mps 711 mmHg 59%
    02:00 +7°C° 0 mm 2 mps 710 mmHg 60%
    03:00 +7°C° 0 mm 2 mps 710 mmHg 61%
    04:00 +6°C° 0 mm 2 mps 710 mmHg 63%
    05:00 +6°C° 0 mm 2 mps 709 mmHg 65%
    06:00 +7°C° 0 mm 2 mps 709 mmHg 64%
    07:00 +8°C° 0 mm 2 mps 709 mmHg 64%
    08:00 +9°C° 0 mm 2 mps 709 mmHg 63%
    09:00 +11°C° 0 mm 3 mps 709 mmHg 56%
    10:00 +13°C° 0 mm 3 mps 709 mmHg 49%
    11:00 +15°C° 0 mm 4 mps 709 mmHg 43%
    12:00 +15°C° 0 mm 4 mps 709 mmHg 42%
    13:00 +16°C° 0 mm 5 mps 708 mmHg 41%
    14:00 +16°C° 0 mm 5 mps 708 mmHg 40%
    15:00 +16°C° 0 mm 5 mps 707 mmHg 42%
    16:00 +15°C° 0 mm 5 mps 707 mmHg 44%
    17:00 +15°C° 0 mm 4 mps 707 mmHg 46%
    18:00 +13°C° 0.1 mm 4 mps 707 mmHg 52%
    19:00 +12°C° 0.1 mm 3 mps 707 mmHg 57%
    20:00 +12°C° 0.1 mm 2 mps 707 mmHg 62%
    21:00 +10°C° 0 mm 2 mps 707 mmHg 65%
    22:00 +9°C° 0 mm 3 mps 707 mmHg 68%
    23:00 +8°C° 0 mm 3 mps 707 mmHg 70%

    26 March, Tuesday

    Time Temperature Precipitation Wind Pressure Humidity
    00:00 +8°C° 0 mm 3 mps 707 mmHg 70%
    01:00 +8°C° 0 mm 3 mps 707 mmHg 70%
    02:00 +7°C° 0 mm 3 mps 707 mmHg 70%
    03:00 +6°C° 0.1 mm 4 mps 707 mmHg 66%
    04:00 +6°C° 0.1 mm 5 mps 707 mmHg 63%
    05:00 +5°C° 0.1 mm 5 mps 707 mmHg 59%
    06:00 +5°C° 0.2 mm 5 mps 707 mmHg 61%
    07:00 +3°C° 0.2 mm 5 mps 708 mmHg 63%
    08:00 +3°C° 0.2 mm 5 mps 708 mmHg 66%
    09:00 +5°C° 0.1 mm 5 mps 708 mmHg 61%
    10:00 +5°C° 0.1 mm 5 mps 709 mmHg 57%
    11:00 +6°C° 0.1 mm 5 mps 709 mmHg 52%
    12:00 +5°C° 0 mm 6 mps 709 mmHg 49%
    13:00 +7°C° 0 mm 6 mps 709 mmHg 45%
    14:00 +7°C° 0 mm 6 mps 709 mmHg 42%
    15:00 +7°C° 0 mm 6 mps 709 mmHg 42%
    16:00 +6°C° 0 mm 5 mps 709 mmHg 42%
    17:00 +6°C° 0 mm 4 mps 709 mmHg 42%
    18:00 +5°C° 0.1 mm 4 mps 709 mmHg 49%
    19:00 +5°C° 0.1 mm 3 mps 709 mmHg 56%
    20:00 +5°C° 0.1 mm 2 mps 710 mmHg 63%
    21:00 +4°C° 0.4 mm 2 mps 710 mmHg 70%
    22:00 +3°C° 0.4 mm 3 mps 710 mmHg 77%
    23:00 +3°C° 0.4 mm 3 mps 711 mmHg 83%

    27 March, Wednesday

    Time Temperature Precipitation Wind Pressure Humidity
    00:00 +3°C° 0.3 mm 2 mps 711 mmHg 83%
    01:00 +3°C° 0.3 mm 2 mps 711 mmHg 83%
    02:00 +3°C° 0.3 mm 2 mps 711 mmHg 83%
    03:00 +2°C° 0.1 mm 2 mps 712 mmHg 84%
    04:00 +2°C° 0.1 mm 2 mps 712 mmHg 85%
    05:00 +2°C° 0.1 mm 2 mps 712 mmHg 86%
    06:00 +2°C° 0.2 mm 2 mps 712 mmHg 86%
    07:00 +2°C° 0.2 mm 2 mps 713 mmHg 87%
    08:00 +2°C° 0.2 mm 2 mps 713 mmHg 88%
    09:00 +2°C° 0.2 mm 3 mps 713 mmHg 85%
    10:00 +2°C° 0.2 mm 3 mps 714 mmHg 82%
    11:00 +3°C° 0.2 mm 3 mps 714 mmHg 80%
    12:00 +3°C° 0.2 mm 3 mps 714 mmHg 78%
    13:00 +4°C° 0.2 mm 3 mps 714 mmHg 76%
    14:00 +4°C° 0.2 mm 3 mps 714 mmHg 75%
    15:00 +4°C° 0.1 mm 3 mps 714 mmHg 74%
    16:00 +5°C° 0.1 mm 2 mps 714 mmHg 73%
    17:00 +5°C° 0.1 mm 2 mps 714 mmHg 72%
    18:00 +5°C° 0.1 mm 2 mps 714 mmHg 76%
    19:00 +5°C° 0.1 mm 1 mps 715 mmHg 80%
    20:00 +5°C° 0.1 mm 1 mps 715 mmHg 85%
    21:00 +4°C° 0 mm 1 mps 715 mmHg 86%
    22:00 +4°C° 0 mm 1 mps 715 mmHg 87%
    23:00 +3°C° 0 mm 1 mps 716 mmHg 88%
    Show more